Regional Weather Roundup
Issued by NWS Nashville, TN

Home | Current Version | Previous Version | Text Only | Print | Product List | Glossary On
Versions: 1 2 3 4 5 6 7 8 9 10 11 12 13 14 15 16 17 18 19 20 21 22 23 24 25 26 27 28 29 30 31 32 33 34 35 36 37 38 39 40 41 42 43 44 45 46 47 48 49 50
000
ASUS44 KOHX 021510
RWROHX
MIDDLE TENNESSEE HOURLY WEATHER ROUNDUP
NATIONAL WEATHER SERVICE NASHVILLE TN
1000 AM CDT WED SEP 02 2015

NOTE: "FAIR" INDICATES FEW OR NO CLOUDS BELOW 12,000 FEET WITH
NO SIGNIFICANT WEATHER AND/OR OBSTRUCTIONS TO VISIBILITY.

* THESE REPORTS ARE NOT UNDER NWS QUALITY CONTROL AND MAY NOT
  REPORT WEATHER SUCH AS PRECIPITATION AND FOG.


TNZ005>011-023>034-057-059-062>066-078-080-021600
...NORTHERN MIDDLE TENNESSEE...

CITY           SKY/WX    TMP DP  RH WIND       PRES   REMARKS
CLARKSVILLE    SUNNY     81  70  69 SE3       30.14S
CROSSVILLE     MOSUNNY   81  66  60 CALM      30.20F
DICKSON        SUNNY     81  70  69 CALM      30.15S
NASHVILLE      CLOUDY    83  68  60 CALM      30.14F
SMYRNA         MOSUNNY   83  72  69 CALM      30.15S
$$
TNZ056-058-060-061-075>077-079-093>097-021600
...SOUTHERN MIDDLE TENNESSEE...

CITY           SKY/WX    TMP DP  RH WIND       PRES   REMARKS
COLUMBIA       SUNNY     82  75  78 CALM      30.12F
LEWISBURG      PTSUNNY   78  70  76 CALM      30.14S
MCMINNVILLE    SUNNY     81  75  83 CALM      30.16S
SHELBYVILLE    SUNNY     81  73  78 CALM      30.15S
TULLAHOMA      MOSUNNY   79  66  65 CALM      30.17R
WINCHESTER     SUNNY     79  72  78 CALM      30.15S
$$


...KEY TO REMARKS...
VSB - VISIBILITY IN MILES
WCI - WIND CHILL INDEX
HX  - HEAT INDEX




USA.gov is the U.S. government's official web portal to all federal, state and local government web resources and services.